Zurück zum Katalog

STARLINK-5830

AktivKommunikationVLEO
NORAD 57065·PAYLOAD·🇺🇸 United States

Gestartet Jun 22, 2023 von Vandenberg Space Force Base

Loading…

Nächste Überflüge (nächste 24 Stunden)

TLE

AktuellSource: CelesTrak SupGP

Epoche: Sep 15, 2026, 02:19 UTC

1 57065C 23088T   26258.09701389  .00053776  00000+0  19480-2 0  2583
2 57065  43.0002 124.4353 0001189 270.1943 281.9673 15.27548412    17

Verfolge STARLINK-5830 in Echtzeit mit AllMySat

Download on the App Store